FW9412 Weather Reports


Display with metric or nautical units.
time (UTC)temp
F
wind
direction
speed
MPH
gust
MPH
rain 1hr
in
rain 24hr
in
rain mn
in
humidity
%
barometer
mb
20260906212549 68 164 1.0 1.0 0.00 0.00 0.00 72 1018.1
20260906212046 68 210 0.0 1.0 0.00 0.00 0.00 70 1018.2
20260906211545 68 167 0.0 0.0 0.00 0.00 0.00 71 1018.2
20260906211040 69 156 0.0 0.0 0.00 0.00 0.00 70 1018.1
20260906210536 68 207 1.0 1.0 0.00 0.00 0.00 71 1018.0
20260906210035 68 132 1.0 1.0 0.00 0.00 0.00 71 1017.9
20260906205531 68 127 2.0 3.0 0.00 0.00 0.00 70 1017.9
20260906205027 69 161 0.0 0.0 0.00 0.00 0.00 69 1017.9
20260906204526 69 297 3.0 5.0 0.00 0.00 0.00 68 1017.8
20260906204021 69 187 2.0 2.0 0.00 0.00 0.00 68 1018.1
20260906203515 69 148 0.0 0.0 0.00 0.00 0.00 68 1018.0
20260906203010 69 225 1.0 2.0 0.00 0.00 0.00 68 1017.9
20260906202506 68 121 1.0 2.0 0.00 0.00 0.00 68 1018.0
20260906202002 68 336 4.0 5.0 0.00 0.00 0.00 68 1017.9
20260906201456 68 213 1.0 2.0 0.00 0.00 0.00 69 1017.7
20260906200956 69 250 1.0 2.0 0.00 0.00 0.00 69 1017.8
20260906200452 69 116 2.0 2.0 0.00 0.00 0.00 68 1018.0
20260906195952 69 168 0.0 0.0 0.00 0.00 0.00 67 1017.8
20260906195448 69 246 1.0 2.0 0.00 0.00 0.00 68 1017.8
20260906194944 68 181 0.0 0.0 0.00 0.00 0.00 67 1017.7
20260906194440 68 153 0.0 0.0 0.00 0.00 0.00 68 1017.7
20260906193935 69 150 0.0 0.0 0.00 0.00 0.00 67 1017.4
20260906193430 69 129 1.0 1.0 0.00 0.00 0.00 66 1017.6
20260906192925 69 118 1.0 2.0 0.00 0.00 0.00 67 1017.6
20260906192420 68 189 0.0 1.0 0.00 0.00 0.00 68 1017.8
20260906191919 69 247 2.0 2.0 0.00 0.00 0.00 67 1017.4
20260906191414 69 133 0.0 1.0 0.00 0.00 0.00 66 1017.6
20260906190908 70 142 0.0 0.0 0.00 0.00 0.00 64 1017.4
20260906190407 69 150 0.0 0.0 0.00 0.00 0.00 68 1017.7
20260906185902 69 114 1.0 2.0 0.00 0.00 0.00 66 1017.6
20260906185401 69 194 1.0 1.0 0.00 0.00 0.00 65 1017.7
20260906184900 69 189 1.0 1.0 0.00 0.00 0.00 69 1017.8
20260906184355 69 109 2.0 3.0 0.00 0.00 0.00 69 1017.6
20260906183851 69 93 0.0 1.0 0.00 0.00 0.00 67 1017.6
20260906183342 69 123 0.0 0.0 0.00 0.00 0.00 67 1017.8
20260906182842 68 139 1.0 1.0 0.00 0.00 0.00 72 1017.7
20260906182338 68 117 0.0 1.0 0.00 0.00 0.00 72 1017.8
20260906181838 69 137 2.0 2.0 0.00 0.00 0.00 69 1017.8
20260906181334 69 136 0.0 1.0 0.00 0.00 0.00 70 1017.7
20260906180829 69 142 0.0 0.0 0.00 0.00 0.00 70 1017.6
20260906180324 69 195 1.0 2.0 0.00 0.00 0.00 70 1017.6
20260906175821 69 89 1.0 2.0 0.00 0.00 0.00 70 1017.7
20260906175317 68 154 0.0 0.0 0.00 0.00 0.00 70 1017.9
20260906174816 69 132 1.0 1.0 0.00 0.00 0.00 69 1018.0
20260906174315 69 66 1.0 2.0 0.00 0.00 0.00 69 1017.8
20260906173811 69 299 1.0 2.0 0.00 0.00 0.00 67 1017.9
20260906173306 69 173 1.0 2.0 0.00 0.00 0.00 69 1018.0
20260906172805 68 150 0.0 0.0 0.00 0.00 0.00 69 1018.0
20260906172305 68 206 1.0 2.0 0.00 0.00 0.00 66 1017.8
20260906171756 68 12 1.0 2.0 0.00 0.00 0.00 68 1017.9
20260906171251 68 146 0.0 0.0 0.00 0.00 0.00 71 1018.0
20260906170747 68 262 3.0 3.0 0.00 0.00 0.00 67 1017.9
20260906170242 68 120 0.0 1.0 0.00 0.00 0.00 66 1017.9
20260906165739 68 169 1.0 2.0 0.00 0.00 0.00 69 1018.0
20260906165238 68 171 0.0 0.0 0.00 0.00 0.00 67 1017.9
20260906164738 68 218 0.0 1.0 0.00 0.00 0.00 71 1018.0
20260906164233 68 157 0.0 0.0 0.00 0.00 0.00 72 1018.1
20260906163729 68 140 0.0 0.0 0.00 0.00 0.00 69 1018.0
20260906163225 68 152 0.0 0.0 0.00 0.00 0.00 68 1018.2
20260906162721 67 144 0.0 0.0 0.00 0.00 0.00 71 1018.2
20260906162216 66 146 0.0 1.0 0.00 0.00 0.00 75 1018.2
20260906161711 66 144 0.0 0.0 0.00 0.00 0.00 74 1018.1
20260906161210 67 168 1.0 1.0 0.00 0.00 0.00 73 1018.2
20260906160709 68 145 0.0 0.0 0.00 0.00 0.00 70 1018.3
20260906160208 67 114 0.0 1.0 0.00 0.00 0.00 74 1018.3
20260906155706 67 162 0.0 1.0 0.00 0.00 0.00 72 1018.4
20260906155201 68 195 0.0 1.0 0.00 0.00 0.00 72 1018.1
20260906154657 67 101 0.0 1.0 0.00 0.00 0.00 73 1018.3
20260906154156 66 109 0.0 1.0 0.00 0.00 0.00 72 1018.5
20260906153655 66 134 0.0 0.0 0.00 0.00 0.00 72 1018.4
20260906153155 66 101 1.0 2.0 0.00 0.00 0.00 73 1018.4
20260906152651 66 262 3.0 3.0 0.00 0.00 0.00 75 1018.4
20260906152145 66 152 0.0 1.0 0.00 0.00 0.00 73 1018.4
20260906151639 66 134 1.0 1.0 0.00 0.00 0.00 74 1018.1
20260906151136 65 144 1.0 1.0 0.00 0.00 0.00 74 1018.2
20260906150630 65 148 0.0 0.0 0.00 0.00 0.00 75 1018.5
20260906150126 65 118 1.0 1.0 0.00 0.00 0.00 79 1018.5
20260906145625 65 145 0.0 0.0 0.00 0.00 0.00 79 1018.4
20260906145119 64 140 1.0 2.0 0.00 0.00 0.00 77 1018.3
20260906144613 63 155 0.0 0.0 0.00 0.00 0.00 81 1018.3
20260906144104 63 151 0.0 0.0 0.00 0.00 0.00 83 1018.3
20260906143604 63 163 0.0 0.0 0.00 0.00 0.00 84 1018.5
20260906143101 63 146 1.0 1.0 0.00 0.00 0.00 86 1018.3
20260906142559 62 160 2.0 3.0 0.00 0.00 0.00 86 1018.3
20260906142055 62 147 0.0 0.0 0.00 0.00 0.00 88 1018.1
20260906141554 62 150 0.0 0.0 0.00 0.00 0.00 89 1018.0
20260906141050 62 148 0.0 0.0 0.00 0.00 0.00 88 1018.0
20260906140549 61 344 2.0 3.0 0.00 0.00 0.00 92 1018.2
20260906140049 61 165 1.0 1.0 0.00 0.00 0.00 96 1018.2
20260906135546 60 146 0.0 0.0 0.00 0.00 0.00 97 1018.2
20260906135042 59 80 2.0 2.0 0.00 0.00 0.00 98 1018.1
20260906134537 59 149 0.0 0.0 0.00 0.00 0.00 99 1018.1
20260906134032 59 140 1.0 1.0 0.00 0.00 0.00 99 1018.0
20260906133528 59 149 0.0 0.0 0.00 0.00 0.00 99 1017.9
20260906133023 59 166 0.0 0.0 0.00 0.00 0.00 99 1018.1
20260906132518 59 167 0.0 1.0 0.00 0.00 0.00 99 1017.9
20260906132013 59 149 0.0 1.0 0.00 0.00 0.00 99 1017.9
20260906131509 59 145 0.0 0.0 0.00 0.00 0.00 99 1017.8
20260906131004 59 148 0.0 0.0 0.00 0.00 0.00 99 1017.9
20260906130503 59 152 0.0 0.0 0.00 0.00 0.00 99 1017.8
20260906125958 58 149 0.0 0.0 0.00 0.00 0.00 99 1017.8
20260906125455 59 124 1.0 2.0 0.00 0.00 0.00 99 1017.9
20260906124955 58 149 0.0 0.0 0.00 0.00 0.00 99 1017.6
20260906124450 58 156 0.0 1.0 0.00 0.00 0.00 99 1017.4
20260906123944 59 158 0.0 1.0 0.00 0.00 0.00 99 1017.8
20260906123439 58 148 0.0 0.0 0.00 0.00 0.00 99 1017.6
20260906122939 58 119 0.0 0.0 0.00 0.00 0.00 99 1017.7
20260906122434 58 158 1.0 1.0 0.00 0.00 0.00 99 1017.6
20260906121931 59 127 0.0 0.0 0.00 0.00 0.00 99 1017.6
20260906121426 58 155 0.0 0.0 0.00 0.00 0.00 99 1017.4
20260906120923 58 85 1.0 2.0 0.00 0.00 0.00 99 1017.6
20260906120418 58 148 1.0 2.0 0.00 0.00 0.00 99 1017.7
20260906115914 58 154 0.0 0.0 0.00 0.00 0.00 99 1017.4
20260906115409 58 156 0.0 0.0 0.00 0.00 0.00 99 1017.3
20260906114908 58 148 0.0 0.0 0.00 0.00 0.00 99 1017.4
20260906114404 58 137 1.0 1.0 0.00 0.00 0.00 99 1017.2
20260906113859 59 160 0.0 0.0 0.00 0.00 0.00 99 1017.2
20260906113358 58 146 0.0 0.0 0.00 0.00 0.00 99 1017.2
20260906112853 59 148 0.0 0.0 0.00 0.00 0.00 99 1017.2
20260906112344 59 151 0.0 0.0 0.00 0.00 0.00 99 1017.1
20260906111844 58 113 0.0 1.0 0.00 0.00 0.00 99 1017.1
20260906111343 59 178 1.0 1.0 0.00 0.00 0.00 99 1017.2
20260906110838 59 140 0.0 0.0 0.00 0.00 0.00 99 1017.1
20260906110334 59 140 0.0 0.0 0.00 0.00 0.00 99 1017.1
20260906105833 59 153 0.0 0.0 0.00 0.00 0.00 99 1016.9
20260906105329 59 153 0.0 0.0 0.00 0.00 0.00 99 1016.7
20260906104825 59 154 0.0 0.0 0.00 0.00 0.00 99 1016.6
20260906104323 59 184 0.0 0.0 0.00 0.00 0.00 99 1016.5
20260906103822 59 148 0.0 0.0 0.00 0.00 0.00 99 1016.5
20260906103321 59 148 0.0 0.0 0.00 0.00 0.00 99 1016.5
20260906102817 59 145 0.0 0.0 0.00 0.00 0.00 99 1016.5
20260906102315 59 142 0.0 0.0 0.00 0.00 0.00 99 1016.3
20260906101811 59 150 0.0 0.0 0.00 0.00 0.00 99 1016.3
20260906101306 59 149 0.0 0.0 0.00 0.00 0.00 99 1016.2
20260906100802 59 148 0.0 0.0 0.00 0.00 0.00 99 1016.3
20260906100301 59 159 0.0 0.0 0.00 0.00 0.00 99 1016.1
20260906095756 59 136 0.0 0.0 0.00 0.00 0.00 99 1016.1
20260906095251 59 145 0.0 0.0 0.00 0.00 0.00 99 1016.3
20260906094750 59 156 0.0 0.0 0.00 0.00 0.00 99 1016.2
20260906094245 59 145 0.0 0.0 0.00 0.00 0.00 99 1015.9
20260906093742 59 154 0.0 0.0 0.00 0.00 0.00 99 1015.9
20260906093237 59 147 0.0 0.0 0.00 0.00 0.00 99 1015.6
20260906092732 59 149 0.0 0.0 0.00 0.00 0.00 99 1015.8
20260906092232 59 157 0.0 0.0 0.00 0.00 0.00 99 1015.7
20260906091728 59 154 0.0 0.0 0.00 0.00 0.00 99 1015.5
20260906091224 59 157 0.0 0.0 0.00 0.00 0.00 99 1015.5
20260906090720 59 156 0.0 0.0 0.00 0.00 0.00 99 1015.4
20260906090219 59 156 0.0 0.0 0.00 0.00 0.00 99 1015.3
20260906085719 59 158 0.0 0.0 0.00 0.00 0.00 99 1015.3
20260906085217 59 155 0.0 0.0 0.00 0.00 0.00 99 1015.2
20260906084712 59 157 0.0 0.0 0.00 0.00 0.00 99 1015.3
20260906084207 59 158 0.0 0.0 0.00 0.00 0.00 99 1015.3
20260906083702 59 156 0.0 0.0 0.00 0.00 0.00 99 1015.3
20260906083157 59 149 0.0 0.0 0.00 0.00 0.00 99 1015.1
20260906082652 59 160 0.0 0.0 0.00 0.00 0.00 99 1015.1
20260906082147 59 160 0.0 0.0 0.00 0.00 0.00 99 1015.0
20260906081644 59 155 0.0 0.0 0.00 0.00 0.00 99 1015.3
20260906081138 59 159 0.0 0.0 0.00 0.00 0.00 99 1015.1
20260906080635 59 160 0.0 0.0 0.00 0.00 0.00 99 1015.0
20260906080131 59 157 0.0 0.0 0.00 0.00 0.00 99 1014.9
20260906075630 59 156 0.0 0.0 0.00 0.00 0.00 99 1015.3
20260906075125 59 157 0.0 0.0 0.00 0.00 0.00 99 1014.9
20260906074620 59 159 0.0 0.0 0.00 0.00 0.00 99 1015.0
20260906074119 59 159 0.0 0.0 0.00 0.00 0.00 99 1015.0
20260906073614 60 159 0.0 0.0 0.00 0.00 0.00 99 1015.1
20260906073110 60 160 0.0 0.0 0.00 0.00 0.00 99 1015.1
20260906072604 60 159 0.0 0.0 0.00 0.00 0.00 99 1015.2
20260906072101 60 159 0.0 0.0 0.00 0.00 0.00 99 1014.7
20260906071557 60 160 0.0 0.0 0.00 0.00 0.00 99 1015.2
20260906071051 60 162 0.0 0.0 0.00 0.00 0.00 99 1015.1
20260906070548 60 161 0.0 0.0 0.00 0.00 0.00 99 1015.2
20260906070043 60 159 0.0 0.0 0.00 0.00 0.00 99 1014.9
20260906065542 60 160 0.0 0.0 0.00 0.00 0.00 99 1015.0
20260906065038 60 164 0.0 0.0 0.00 0.00 0.00 99 1014.9
20260906064534 60 158 0.0 0.0 0.00 0.00 0.00 99 1015.0
20260906064029 60 159 0.0 0.0 0.00 0.00 0.00 99 1014.8
20260906063524 60 159 0.0 0.0 0.00 0.00 0.00 99 1015.1
20260906063020 61 160 0.0 0.0 0.00 0.00 0.00 99 1015.2
20260906062515 61 160 0.0 0.0 0.00 0.00 0.00 99 1015.0
20260906062009 61 161 0.0 0.0 0.00 0.00 0.00 99 1015.0
20260906061505 61 158 0.0 0.0 0.00 0.00 0.00 99 1014.9
20260906060959 61 160 0.0 0.0 0.00 0.00 0.00 99 1014.9
20260906060456 60 156 0.0 0.0 0.00 0.00 0.00 99 1014.8
20260906055953 60 156 0.0 0.0 0.00 0.00 0.00 98 1015.0
20260906055448 60 158 0.0 0.0 0.00 0.00 0.00 98 1015.1
20260906054944 60 158 0.0 0.0 0.00 0.00 0.00 98 1015.1
20260906054443 60 159 0.0 0.0 0.00 0.00 0.00 98 1015.4
20260906053939 60 160 0.0 0.0 0.00 0.00 0.00 98 1015.1
20260906053435 60 160 0.0 0.0 0.00 0.00 0.00 98 1014.9
20260906052931 60 160 0.0 0.0 0.00 0.00 0.00 98 1015.1
20260906052427 61 160 0.0 0.0 0.00 0.00 0.00 98 1015.0
20260906051923 61 160 0.0 0.0 0.00 0.00 0.00 98 1014.9
20260906051418 61 159 0.0 0.0 0.00 0.00 0.00 98 1015.0
20260906050914 61 158 0.0 0.0 0.00 0.00 0.00 98 1015.1
20260906050408 62 157 0.0 0.0 0.00 0.00 0.00 98 1015.0
20260906045908 62 159 0.0 0.0 0.00 0.00 0.00 98 1015.1
20260906045406 62 159 0.0 0.0 0.00 0.00 0.00 98 1014.9
20260906044903 62 157 0.0 0.0 0.00 0.00 0.00 98 1014.9
20260906044403 62 156 0.0 0.0 0.00 0.00 0.00 98 1015.2
20260906043858 62 156 0.0 0.0 0.00 0.00 0.00 98 1014.9
20260906043354 62 156 0.0 0.0 0.00 0.00 0.00 98 1015.3
20260906042849 62 156 0.0 0.0 0.00 0.00 0.00 98 1015.0
20260906042348 62 157 0.0 0.0 0.00 0.00 0.00 98 1015.2
20260906041844 62 160 0.0 0.0 0.00 0.00 0.00 98 1015.1
20260906041339 62 160 0.0 0.0 0.00 0.00 0.00 98 1015.2
20260906040839 62 160 0.0 0.0 0.00 0.00 0.00 98 1015.4
20260906040334 62 159 0.0 0.0 0.00 0.00 0.00 97 1015.4
20260906035830 63 163 0.0 0.0 0.00 0.10 0.10 97 1015.3
20260906035325 63 160 0.0 0.0 0.00 0.10 0.10 97 1015.2
20260906034820 63 172 0.0 0.0 0.05 0.10 0.10 97 1015.3
20260906034315 63 160 0.0 0.0 0.52 0.10 0.10 97 1015.2
20260906033811 63 160 0.0 0.0 0.47 0.08 0.08 97 1015.3
20260906033310 63 145 0.0 0.0 0.07 0.01 0.01 97 1015.2
20260906032807 63 151 0.0 0.0 0.00 0.00 0.00 97 1014.9
20260906032305 63 161 0.0 0.0 0.00 0.00 0.00 97 1014.8
20260906031757 63 161 0.0 0.0 0.00 0.00 0.00 97 1014.9
20260906031253 63 161 0.0 0.0 0.00 0.00 0.00 97 1014.8
20260906030752 63 162 0.0 0.0 0.00 0.00 0.00 97 1014.9
20260906030248 63 161 0.0 0.0 0.00 0.00 0.00 97 1015.1
20260906025747 63 162 0.0 0.0 0.00 0.00 0.00 97 1014.9
20260906025241 62 162 0.0 0.0 0.00 0.00 0.00 97 1015.1
20260906024740 62 162 0.0 0.0 0.00 0.00 0.00 96 1015.1
20260906024239 62 155 0.0 0.0 0.00 0.00 0.00 96 1014.9
20260906023735 62 154 0.0 0.0 0.00 0.00 0.00 96 1014.9
20260906023231 62 158 0.0 0.0 0.00 0.00 0.00 96 1015.0
20260906022726 62 158 0.0 0.0 0.00 0.00 0.00 96 1014.8
20260906022221 62 158 0.0 0.0 0.00 0.00 0.00 96 1014.7
20260906021717 62 159 0.0 0.0 0.00 0.00 0.00 96 1014.9
20260906021216 62 159 0.0 0.0 0.00 0.00 0.00 95 1015.1
20260906020711 62 159 0.0 0.0 0.00 0.00 0.00 95 1014.7
20260906020205 62 160 0.0 0.0 0.00 0.00 0.00 95 1014.9
20260906015700 62 160 0.0 0.0 0.00 0.00 0.00 95 1014.8
20260906015159 62 160 0.0 0.0 0.00 0.00 0.00 95 1014.8
20260906014659 62 160 0.0 0.0 0.00 0.00 0.00 95 1014.6
20260906014155 62 161 0.0 0.0 0.00 0.00 0.00 95 1014.8
20260906013650 62 159 0.0 0.0 0.00 0.00 0.00 95 1014.5
20260906013146 62 165 0.0 0.0 0.00 0.00 0.00 94 1014.7
20260906012645 62 161 0.0 0.0 0.00 0.00 0.00 94 1014.5
20260906012140 62 160 0.0 0.0 0.00 0.00 0.00 94 1014.6
20260906011636 62 162 0.0 0.0 0.00 0.00 0.00 94 1014.7
20260906011131 62 162 0.0 0.0 0.00 0.00 0.00 94 1014.5
20260906010626 63 159 0.0 0.0 0.00 0.00 0.00 93 1014.6
20260906010122 63 160 0.0 0.0 0.00 0.00 0.00 93 1014.5
20260906005621 63 173 0.0 0.0 0.00 0.00 0.00 93 1014.5
20260906005121 63 172 0.0 0.0 0.00 0.00 0.00 93 1014.7
20260906004620 63 160 0.0 0.0 0.00 0.00 0.00 93 1014.4
20260906004115 63 160 0.0 0.0 0.00 0.00 0.00 92 1014.6
20260906003610 63 160 0.0 0.0 0.00 0.00 0.00 92 1014.5
20260906003106 63 160 0.0 0.0 0.00 0.00 0.00 92 1014.3
20260906002601 64 166 0.0 0.0 0.00 0.00 0.00 91 1014.7
20260906002055 64 165 0.0 0.0 0.00 0.00 0.00 91 1014.4
20260906001545 64 168 0.0 0.0 0.00 0.00 0.00 90 1014.4
20260906001039 64 27 1.0 1.0 0.00 0.00 0.00 90 1014.7
20260906000535 64 126 0.0 0.0 0.00 0.00 0.00 90 1014.5
20260906000030 64 151 0.0 0.0 0.00 0.00 0.00 89 1014.5
20260905235524 64 164 0.0 0.0 0.00 0.00 0.00 89 1014.3
20260905235019 65 163 0.0 0.0 0.00 0.00 0.00 89 1014.3
20260905234514 65 159 0.0 0.0 0.00 0.00 0.00 88 1014.2
20260905234009 65 144 0.0 0.0 0.00 0.00 0.00 88 1014.2
20260905233504 65 168 0.0 0.0 0.00 0.00 0.00 87 1014.2
20260905233003 66 169 0.0 0.0 0.00 0.00 0.00 86 1014.1
20260905232459 66 147 0.0 0.0 0.00 0.00 0.00 85 1014.2
20260905231954 67 169 0.0 0.0 0.00 0.00 0.00 85 1014.4
20260905231450 67 161 0.0 0.0 0.00 0.00 0.00 84 1014.4
20260905230946 67 168 0.0 0.0 0.00 0.00 0.00 84 1014.3
20260905230445 67 168 0.0 0.0 0.00 0.00 0.00 83 1014.2
20260905225943 68 208 0.0 1.0 0.00 0.00 0.00 83 1014.2
20260905225438 68 155 0.0 0.0 0.00 0.00 0.00 82 1014.1
20260905224933 68 151 1.0 1.0 0.00 0.00 0.00 82 1014.2
20260905224429 68 133 0.0 1.0 0.00 0.00 0.00 82 1014.4
20260905223928 68 149 0.0 0.0 0.00 0.00 0.00 81 1014.4
20260905223427 68 145 0.0 0.0 0.00 0.00 0.00 81 1014.5
20260905222926 68 163 0.0 1.0 0.00 0.00 0.00 80 1014.3
20260905222426 68 158 0.0 0.0 0.00 0.00 0.00 80 1014.4
20260905221922 68 252 0.0 2.0 0.00 0.00 0.00 80 1014.1
20260905221418 68 130 1.0 1.0 0.00 0.00 0.00 80 1014.2
20260905220914 69 200 0.0 0.0 0.00 0.00 0.00 79 1013.9
20260905220410 69 168 0.0 1.0 0.00 0.00 0.00 78 1014.1
20260905215909 69 239 1.0 2.0 0.00 0.00 0.00 79 1013.9
20260905215405 69 169 1.0 1.0 0.00 0.00 0.00 78 1013.8
20260905214901 69 170 1.0 1.0 0.00 0.00 0.00 78 1013.7
20260905214356 69 237 1.0 1.0 0.00 0.00 0.00 78 1013.6
20260905213851 69 196 1.0 1.0 0.00 0.00 0.00 77 1013.7
20260905213347 69 141 1.0 2.0 0.00 0.00 0.00 76 1013.4
20260905212842 70 270 2.0 2.0 0.00 0.00 0.00 76 1013.5